Flag for U.S.A. Weather past 2 weeks in Duluth, Minnesota, U.S.A.

Now
75 °F

Sunny.


Feels Like: 77 °F
Forecast: 47 / 74 °F
Wind: 9 mph from Southwest

Location: Sky Harbor Airport

Current Time: May 23, 2015 at 11:40:40 AM

Latest Report: May 23, 2015 at 11:14 AM


Visibility: 10 mi

Pressure: 30.19 "Hg

Humidity: 25%

Dew point: 37 °F

Location of DuluthLocation

Historic Weather in Duluth — Graph

°F

Duluth temperature yesterday

Maximum temperature yesterday: 54 °F (at 12:14 AM)
Minimum temperature yesterday: 43 °F (at 5:54 AM)
Average temperature yesterday: 46 °F

Past Weeks' High & Low Weather Summary

 TemperatureHumidityPressure
High73 °F (May 23, 10:33 AM)100% (May 10, 7:53 PM)30.49 "Hg (May 10, 7:53 PM)
Low37 °F (May 10, 4:53 PM)17% (May 20, 5:34 PM)29.55 "Hg (May 17, 8:33 PM)
Average44 °F79%30.08 "Hg
* Reported May 8 10:13 AM — May 23 10:33 AM, Duluth, Weather by CustomWeather, © 2015

Note: Actual official high and low records may vary slightly from our data, if they occured in-between our weather recording intervals... More about our weather records

Advertising

Duluth weather history for previous 24 hours

 ConditionsComfort  
Time TempWeatherWind HumidityBarometerVisibility
10:33 AM
Sat, May 23
73 °FSunny.8 mph29%30.20 "Hg10 mi
10:13 AM72 °FSunny.9 mph31%30.21 "Hg10 mi
9:54 AM70 °FSunny.8 mph35%30.21 "Hg10 mi
9:34 AM70 °FSunny.10 mph38%30.22 "Hg10 mi
9:14 AM66 °FSunny.10 mph43%30.22 "Hg10 mi
8:54 AM64 °FSunny.12 mph46%30.22 "Hg10 mi
8:34 AM63 °FSunny.12 mph49%30.22 "Hg10 mi
8:14 AM61 °FSunny.13 mph52%30.22 "Hg10 mi
7:54 AM57 °FSunny.10 mph59%30.22 "Hg10 mi
7:34 AM57 °FSunny.9 mph59%30.23 "Hg10 mi
7:14 AM54 °FSunny.7 mph63%30.23 "Hg10 mi
6:54 AM54 °FSunny.8 mph63%30.23 "Hg10 mi
6:34 AM52 °FCool.9 mph62%30.22 "Hg10 mi
6:14 AM52 °FClear.9 mph67%30.22 "Hg10 mi
5:54 AM52 °FClear.9 mph67%30.21 "Hg10 mi
5:34 AM50 °FClear.9 mph71%30.21 "Hg10 mi
5:14 AM48 °FClear.8 mph76%30.21 "Hg10 mi
4:54 AM48 °FClear.No wind71%30.21 "Hg10 mi
4:34 AM48 °FClear.6 mph76%30.21 "Hg10 mi
4:14 AM46 °FClear.6 mph82%30.20 "Hg10 mi
3:54 AM45 °FClear.No wind81%30.20 "Hg10 mi
3:34 AM45 °FClear.No wind81%30.20 "Hg10 mi
3:14 AM45 °FClear.No wind81%30.20 "Hg10 mi
2:54 AM43 °FClear.6 mph81%30.19 "Hg10 mi
2:34 AM43 °FClear.5 mph81%30.19 "Hg10 mi
2:14 AM45 °FClear.5 mph76%30.19 "Hg10 mi
1:54 AM45 °FClear.3 mph76%30.19 "Hg10 mi
1:34 AM45 °FClear.5 mph76%30.19 "Hg10 mi
12:54 AM45 °FClear.3 mph76%30.19 "Hg10 mi
12:34 AM43 °FClear.No wind76%30.19 "Hg10 mi
12:14 AM45 °FClear.No wind71%30.19 "Hg10 mi
11:54 PM
Fri, May 22
45 °FClear.No wind71%30.20 "Hg10 mi
11:34 PM45 °FClear.No wind71%30.20 "Hg10 mi
11:14 PM45 °FClear.No wind71%30.20 "Hg10 mi
10:34 PM45 °FClear.No wind71%30.20 "Hg10 mi
10:14 PM43 °FClear.No wind76%30.20 "Hg10 mi
9:54 PM43 °FClear.No wind76%30.20 "Hg10 mi
9:34 PM43 °FSunny.No wind76%30.19 "Hg10 mi
9:14 PM43 °FSunny.3 mph81%30.19 "Hg10 mi
8:54 PM43 °FSunny.3 mph81%30.19 "Hg10 mi
8:34 PM43 °FSunny.3 mph81%30.18 "Hg10 mi
8:14 PM45 °FSunny.3 mph76%30.18 "Hg10 mi
7:54 PM45 °FSunny.5 mph76%30.18 "Hg10 mi
7:34 PM45 °FSunny.5 mph76%30.18 "Hg10 mi
7:14 PM45 °FSunny.5 mph76%30.18 "Hg10 mi
6:54 PM45 °FSunny.5 mph76%30.18 "Hg10 mi
6:34 PM45 °FSunny.3 mph76%30.18 "Hg10 mi
6:13 PM45 °FSunny.6 mph81%30.18 "Hg10 mi
5:54 PM45 °FSunny.6 mph81%30.19 "Hg10 mi
5:34 PM46 °FSunny.6 mph76%30.19 "Hg10 mi
5:14 PM46 °FSunny.7 mph76%30.19 "Hg10 mi
4:54 PM46 °FSunny.8 mph76%30.19 "Hg10 mi
4:34 PM46 °FSunny.8 mph76%30.19 "Hg10 mi
4:14 PM48 °FSunny.7 mph66%30.20 "Hg10 mi
3:54 PM48 °FSunny.7 mph62%30.20 "Hg10 mi
3:34 PM48 °FSunny.8 mph66%30.20 "Hg10 mi
3:14 PM46 °FSunny.6 mph76%30.21 "Hg10 mi
2:54 PM48 °FSunny.6 mph71%30.21 "Hg10 mi
2:34 PM48 °FSunny.6 mph71%30.21 "Hg10 mi
2:13 PM48 °FSunny.7 mph71%30.22 "Hg10 mi
1:54 PM48 °FSunny.9 mph66%30.22 "Hg10 mi
1:34 PM48 °FSunny.8 mph71%30.22 "Hg10 mi
1:14 PM50 °FSunny.9 mph67%30.22 "Hg10 mi
12:54 PM50 °FSunny.5 mph62%30.22 "Hg10 mi
12:34 PM48 °FScattered clouds.3 mph66%30.22 "Hg10 mi
12:14 PM48 °FSunny.5 mph66%30.22 "Hg10 mi
11:54 AM48 °FSunny.6 mph66%30.23 "Hg10 mi
11:34 AM48 °FSunny.5 mph66%30.23 "Hg10 mi
11:14 AM48 °FSunny.3 mph66%30.23 "Hg10 mi
Weather by CustomWeather, © 2015

See weather overviewHow to use our weather pages